sat.trackr.live / text

‹ back to catalog

STARLINK-30415

NORAD 57821 · 2023-138P

PAYLOAD ACTIVE UNKNOWN

§ Identity

Operator
Country
US
Launch date
2023-09-09
Launch site
AFETR
Launch vehicle
Mass (kg)
RCS (m²)

Purposes: comms

External: N2YO · Heavens-Above · Gunter

§ Orbital elements

Epoch: 2026-05-25T01:42:17.913024Z

Period
94.27 min
Inclination
42.9998°
Eccentricity
0.0001477
Mean motion
15.27574481 rev/d
Perigee alt
482.1 km
Apogee alt
484.1 km
Semi-major
6,861.2 km
B*
1.3549e-4
RAAN
163.3498°
Arg perigee
270.2407°
Mean anomaly
89.8275°
Rev number
15,041

§ Raw data

STARLINK-304151 57821U 23138P   26145.07104066  .00003467  00000+0  13549-3 0  99962 57821  42.9998 163.3498 0001477 270.2407  89.8275 15.27574481150415

JSON: /api/v1/satellites/57821 · /tle

For live sub-satellite position, see the globe view (requires WebGL).

§ Visibility from observer

Set your observer location to see the next 7 days of passes ≥ 10°. The values pass through the URL so the page stays shareable.

No JS? Fill the form by hand. The geolocation button needs JavaScript.